Estación Meteorológica Peña el Pijo (Robertgarden) [ 07/15/20 06:44:00 CEST ]

Fecha Hora Presion(HPa) Temp (°C) Humedad % Rocio (°C) Viento ( m/s) Direccion Lluvia 1Hora(mm) Lluvia 24H(mm) LLuvia Total(mm)
2020-Feb-21 01:09:08 1015.500 - - - - N     39.88
2020-Feb-21 02:09:37 1015.300 - - - - N     39.88
2020-Feb-21 03:09:51 1015.200 - - - - N     39.88
2020-Feb-21 04:09:28 1015.200 - - - - N     39.88
2020-Feb-21 05:09:33 1015.200 - - - - N     39.88
2020-Feb-21 06:09:55 1015.400 - - - - N     39.88
2020-Feb-21 07:09:24 1015.900 - - - - N     39.88
2020-Feb-21 08:09:10 1016.400 - - - - N     39.88
2020-Feb-21 09:09:04 1017.200 - - - - N     39.88
2020-Feb-21 10:09:39 1017.300 - - - - N     39.88
2020-Feb-21 11:09:33 1017.400 - - - - N     39.88
2020-Feb-21 12:09:02 1017.600 - - - - N     39.88
2020-Feb-21 13:08:46 1017.000 - - - - N     39.88
2020-Feb-21 14:09:07 1016.800 - - - - N     39.88
2020-Feb-21 15:09:30 1016.300 - - - - N     39.88
2020-Feb-21 16:09:21 1016.400 - - - - N     39.88
2020-Feb-21 17:09:29 1016.600 - - - - N     39.88
2020-Feb-21 18:09:13 1017.000 - - - - N     39.88
2020-Feb-21 19:09:29 1017.400 - - - - N     39.88
2020-Feb-21 20:08:59 1018.100 - - - - N     39.88
2020-Feb-21 21:09:18 1018.500 - - - - N     39.88
2020-Feb-21 22:09:38 1018.600 - - - - N     39.88
2020-Feb-21 23:09:10 1019.000 - - - - N     39.88

Temperatura Máxima:    Temperatura Mínima:
Presión Máxima:1019.000 Hpa    Presión Mínima:1015.200 Hpa


Volver